Weather in Valuyki

Russia / Belgorod Oblast     50°12′40″N   38°05′59″E
temp.,
°C
wind,
m/s
gust,
m/s
humid.,
%
clouds,
%
prec.,
mm/h
press.,
hPa
HPBL,
m
15 august, mon
mon1500:00+21ene6145082 0.0 1013308
03:00+20ene5144839 0.0 1014303
06:00+22ene6144396 0.0 1013335
09:00+27e8133338 0.0 1013564
12:00+33e8102232 0.0 10131336
15:00+36e8101759 0.0 10113547
18:00+34ene7112166 0.0 10101311
21:00+30ene9162549 0.0 1011677
16 august, tue
tue1600:00+28e91831100 0.0 1012690
03:00+26e61336100 0.0 1013632
06:00+24e71529100 0.0 1013443
09:00+24e71432100 0.0 1013518
12:00+26e61127100 0.0 1014787
15:00+29e81125100 0.0 1013765
18:00+28ene71229100 0.0 1012884
21:00+27ene81632100 0.0 1011574
17 august, wed
wed1700:00+26e716328 0.0 1011488
03:00+22e5114197 0.3 1011216
06:00+23e383824 0.0 1011172
09:00+29e7122890 0.0 10101235
12:00+34ese8101917 0.0 10092582
15:00+35e78189 0.3 10083238
18:00+32ene582699 0.1 1007456
21:00+22ene51367100 1.6 1009200
18 august, thu
thu1800:00+20ne6156626 0.3 1009330
03:00+17ne39778 0.5 1009172
06:00+17ne387334 0.1 1009162
09:00+24ene454591 0.4 1009415
12:00+30ene4431100 0.0 10091043
15:00+31ne333099 0.4 10081479
18:00+31ne443271 0.1 10071350
21:00+21ne5127742 0.8 1009230
19 august, fri
fri1900:00+19ene5118149 0.4 1010281
03:00+18ne410864 0.9 1009209
06:00+17ne3686100 2.0 1010128
09:00+23e586799 2.3 1011470
12:00+30ese674258 0.0 10101637
15:00+33ese563350 0.0 10102655
18:00+26ssw81258100 0.1 1011529
21:00+22nnw4778100 0.6 1012148